Location: ??????????
(48.6398°N, 37.8605°E)
Time: 00:41:26
(UTC+00:00)

Daily predictions for brighter satellites

Satellite Brightness Start Highest point End
(mag) Time Altitude Azimuth Time Altitude Azimuth Time Altitude Azimuth
CENTAUR R/B 3.8 00:07:56 10° NW 00:15:30 51° NE 00:23:59 10° ESE
Resurs 1-4 Rocket 4.2 00:14:43 10° N 00:16:24 19° NNW 00:16:24 19° NNW
Cosmos 2360 Rocket 4.2 00:28:56 10° NNW 00:40:22 - SE 00:30:27 19° NNW
USA 234 3.4 00:31:34 10° SE 00:36:44 59° SE 00:36:44 59° SE
ADEOS II 3.6 00:34:01 10° N 00:36:32 27° N 00:36:32 27° N
ADEOS Rocket 4.3 00:43:11 25° NNW 00:43:11 25° NNW 00:45:21 10° NNW
IDEFIX/ARIANE 42P 3.5 00:35:25 10° NNE 00:38:53 43° NNE 00:38:53 43° NNE
CZ-4C R/B 4.4 00:39:49 11° SE 00:41:57 14° ESE 00:44:37 10° ENE
Meteor 2-15 Rocket 4.4 00:45:03 77° NNE 00:45:03 77° NNE 00:50:45 10° N
NOSS 3-2 (C) 4.4 00:39:00 10° NW 00:46:14 61° NE 00:54:31 10° ESE
Cosmos 1553 Rocket 3.9 00:48:03 85° E 00:48:03 85° E 00:54:17 10° N
Cosmos 1417 Rocket 4.5 00:50:51 72° SSE 00:51:24 79° E 00:57:47 10° NNE
BREEZE-M DEB (TANK) 4.1 00:52:29 48° ESE 00:52:29 48° ESE 00:54:50 10° ENE
ISS -0.7 00:54:44 15° E 00:54:44 15° E 00:55:22 10° E
Lacrosse 5 2.5 01:00:54 49° ESE 01:00:54 49° ESE 01:04:35 10° SE
Cosmos 2082 Rocket 3.8 01:00:46 23° NNW 01:00:46 23° NNW 01:04:29 10° N
MSX 3.7 00:55:35 10° NNE 01:01:06 80° NNW 01:01:06 80° NNW
Cosmos 2333 Rocket 2.9 00:57:18 10° NNW 01:02:58 53° NE 01:08:36 10° SE
Cosmos 2221 3.4 01:16:36 42° N 01:16:36 42° N 01:19:34 10° N
Cosmos 2219 Rocket 2.7 01:12:37 10° NNW 01:18:14 58° ENE 01:23:49 10° SE
Cosmos 1805 Rocket 4.3 01:14:00 10° N 01:18:24 52° ENE 01:22:45 10° SSE
CZ-2C R/B 2.5 01:16:58 10° NNE 01:21:43 66° ESE 01:22:38 53° SSE
Landsat 5 4.2 01:20:42 10° SE 01:24:24 48° ENE 01:28:13 10° N
USA 238 DEB 3.7 01:19:25 10° NW 01:26:40 79° SW 01:34:13 10° SSE
USA 238 3.7 01:19:32 10° NW 01:26:46 80° SW 01:34:19 10° SSE
CZ-2D R/B 4.4 01:25:20 10° NNW 01:25:31 10° NW 01:25:31 10° NW
BREEZE-M DEB (TANK) 2.8 01:28:59 67° WNW 01:29:35 83° N 01:40:31 10° E
ATLAS 3B R/B 4.1 01:24:01 10° NW 01:30:18 36° NNE 01:36:50 10° E
GEOS 3 Rocket 4.4 01:27:00 10° NNE 01:31:54 38° NW 01:32:31 36° NW
COSMOS 2428 3.1 01:28:36 10° NNW 01:34:19 65° ENE 01:39:59 10° SE
Sich 1 3.6 01:31:01 10° N 01:35:25 59° ENE 01:39:44 10° SSE
S3M 3.9 01:36:31 47° SW 01:38:02 61° WNW 01:44:12 10° N
Cosmos 1606 2.7 01:37:55 76° SE 01:38:03 77° E 01:41:58 10° NNE
ATLAS 5 CENTAUR R/B 3.3 01:37:44 17° SSE 01:39:49 25° ESE 01:43:23 10° ENE
Cosmos 2344 3.5 01:36:41 38° SW 01:39:57 85° NW 01:48:06 10° NE
Cosmos 1745 Rocket 4.1 01:34:27 10° NNW 01:40:30 50° W 01:41:56 42° SW
SeaSat 1 3.7 01:38:50 10° ESE 01:43:27 41° NE 01:48:04 10° NNW
ARIANE 5 R/B 3.3 01:38:56 10° N 01:43:01 34° NW 01:43:01 34° NW
USA 267 3.5 01:39:23 10° NE 01:45:47 59° NNW 01:48:36 34° W
Helios 1B 4.4 01:48:05 20° S 01:50:58 67° WSW 01:55:18 10° NNW
FENGYUN 3A 3.9 01:46:50 10° NNE 01:52:18 72° ESE 01:57:43 10° S
Cosmos 1709 Rocket 3.9 01:46:02 10° NNW 01:52:22 68° W 01:58:41 10° S
NOSS 0 Rocket 4.5 01:47:54 10° NNW 01:54:00 59° NE 02:00:06 10° SE
Cosmos 2322 3.6 01:49:20 10° NNW 01:54:59 65° WSW 02:00:34 10° SSE
NOSS 3-2 (A) 4.2 01:48:02 10° NW 01:55:18 51° WSW 02:03:27 10° SSE
CZ-4C R/B 2.7 01:57:24 77° W 01:57:24 77° W 02:00:53 10° NNW
H-2A R/B 2.0 02:00:46 10° SSE 02:04:59 83° ENE 02:09:09 10° NNW
Cosmos 1151 Rocket 4.0 02:02:03 10° SSE 02:06:11 47° E 02:10:19 10° NNE
CENTAUR R/B 3.2 01:58:41 10° NW 02:06:40 62° WSW 02:15:23 10° SSE
Meteor 1-4 Rocket 4.4 02:08:39 19° NW 02:08:39 19° NW 02:10:10 10° NNW
SWAS 4.4 02:04:14 10° NW 02:08:34 67° WSW 02:12:49 10° SSE
Cosmos 1833 4.4 02:06:29 32° WSW 02:08:47 52° NW 02:14:18 10° NNE
Geosat 4.0 02:08:13 10° NNE 02:13:17 81° ESE 02:17:52 13° SSW
Cosmos 1633 Rocket 3.2 02:09:02 10° N 02:13:27 74° E 02:17:49 10° SSE
Cosmos 2251 Rocket 3.7 02:13:22 26° SW 02:16:12 55° WNW 02:21:31 10° NNE
SKYMED 2 4.3 02:12:06 10° SSE 02:16:21 55° ENE 02:20:37 10° N
Meteor 1-20 Rocket 4.2 02:10:38 10° NNW 02:16:22 79° W 02:22:08 10° S
COSMOS 2487 2.8 02:16:49 39° WNW 02:16:56 39° WNW 02:20:11 10° N
Cosmos 2360 Rocket 4.2 02:22:24 10° SSW 02:22:24 10° SSW 02:22:25 10° SSW
Cosmos 614 Rocket 3.9 02:14:20 17° SSW 02:18:20 75° WNW 02:23:36 10° NNE
IDEFIX/ARIANE 42P 4.2 02:16:30 10° NNW 02:19:30 16° NW 02:19:42 16° WNW
USA 234 4.1 02:16:22 10° S 02:21:45 27° SW 02:24:09 22° W
ALOS 2.2 02:19:09 10° N 02:23:46 62° WNW 02:28:23 10° SSW
Cosmos 2237 Rocket 2.7 02:20:14 10° NNW 02:25:54 63° ENE 02:31:30 10° SE
Cosmos 1933 3.2 02:22:21 10° SSW 02:26:21 68° W 02:30:25 10° N
CZ-2C R/B 4.2 02:26:02 10° NNW 02:28:51 21° WNW 02:28:51 21° WNW
ISS -3.7 02:27:42 33° W 02:28:57 60° SSW 02:32:15 10° SE
CZ-4C R/B 2.1 02:25:01 15° SW 02:29:11 83° SE 02:35:14 10° NE
Cosmos 407 Rocket 3.5 02:27:51 10° SSW 02:33:01 87° ESE 02:38:11 10° NNE
CSL-04 DEB 4.4 02:30:01 10° SSE 02:33:57 79° ENE 02:37:54 10° NNW
Iridium 51 4.0 02:30:35 10° N 02:34:21 63° W 02:37:51 10° S
Meteor 1-31 Rocket 2.8 02:30:51 10° NNE 02:34:44 79° ESE 02:38:34 10° S
NOSS 3-4 (A) 3.5 02:29:03 10° SW 02:34:55 81° SE 02:41:17 10° NE
NOSS 3-4 (C) 3.5 02:29:10 10° SW 02:35:02 80° SE 02:41:23 10° NE
NOSS 3-2 (C) 4.3 02:30:04 10° NW 02:37:15 46° WSW 02:45:15 10° S
PSLV R/B 4.3 02:33:53 10° N 02:37:47 32° WNW 02:40:21 18° WSW
Lacrosse 5 3.0 02:40:09 19° W 02:42:00 24° SW 02:45:58 10° S
Cosmos 1190 Rocket 4.1 02:39:18 10° SSW 02:44:36 85° ESE 02:49:57 10° NNE
USA 276 2.1 02:43:47 23° W 02:45:38 80° NNW 02:48:51 10° ENE
Cosmos 2227 Rocket 3.8 02:40:54 10° S 02:46:03 37° ESE 02:51:13 10° NE
Cosmos 2333 Rocket 3.0 02:42:02 10° NW 02:46:57 30° WSW 02:51:52 10° SSW
Cosmos 1328 Rocket 3.4 02:43:47 10° SSW 02:48:04 77° W 02:52:26 10° N
SL-16 R/B 3.7 02:43:24 10° NNW 02:48:46 39° NE 02:54:04 10° ESE
CZ-3 R/B 4.2 02:37:48 10° SW 02:49:51 21° S 02:55:31 10° SE
Cosmos 1515 Rocket 4.0 02:45:52 10° S 02:50:10 65° E 02:54:32 10° NNE
ATLAS 2AS CENTAUR R/B 3.3 02:42:22 10° SSW 02:50:15 75° SE 02:58:01 10° NE
SJ-12 3.8 02:48:19 10° N 02:52:25 80° WNW 02:56:27 10° SSW
Cosmos 2327 Rocket 4.4 02:49:19 10° N 02:55:28 85° W 03:01:33 10° S
Cosmos 1484 Rocket 3.6 02:53:12 10° N 02:56:27 29° WNW 02:59:41 10° SW
Meteor PRIRODA 4.2 02:52:57 10° NNE 02:56:41 62° ESE 03:00:22 10° S
Cosmos 1666 3.8 02:54:04 10° N 02:57:47 48° ENE 03:01:30 10° SSE
Cosmos 1470 Rocket 3.5 02:53:46 10° NNW 02:58:06 68° W 03:02:23 10° S
CZ-2C R/B 3.8 02:56:12 10° NNW 02:59:27 19° WNW 03:02:02 12° W
Cosmos 1437 Rocket 3.0 02:55:31 10° SSW 02:59:29 52° WNW 03:03:26 10° N
CZ-4B R/B 3.5 02:55:03 10° NNE 02:59:35 73° ESE 03:04:05 10° S
Cosmos 2297 Rocket 2.9 02:55:35 10° S 03:01:06 59° ESE 03:06:40 10° NE
Envisat 3.8 02:56:20 10° NNE 03:01:21 55° E 03:06:19 10° S
Cosmos 1295 Rocket 4.5 02:55:40 10° N 03:01:47 89° W 03:07:53 10° S
Cosmos 2219 Rocket 3.1 02:57:13 10° NW 03:01:49 26° WSW 03:06:25 10° SSW
deb Chang Zheng 4 3.9 03:00:04 10° NNE 03:04:21 69° ESE 03:08:39 10° S
COSMO-SKYMED 1 2.8 03:00:14 10° S 03:04:26 49° W 03:08:41 10° NNW
Cosmos 1689 Rocket 3.0 03:03:24 10° SSE 03:06:09 49° ENE 03:08:55 10° N
CZ-4B R/B 1.5 03:04:37 10° S 03:07:34 41° W 03:10:30 10° NNW
Cosmos 1782 3.1 03:05:26 10° SSW 03:09:12 43° WNW 03:13:01 10° N
Cosmos 1140 Rocket 3.6 03:05:36 10° SW 03:10:42 55° WNW 03:15:49 10° NNE
Cosmos 1980 3.7 03:05:10 10° NW 03:10:44 61° WSW 03:16:19 10° S
Meteor 1-26 Rocket 4.5 03:05:38 10° SSW 03:11:15 53° WNW 03:17:05 10° N
Cosmos 2074 Rocket 4.3 03:07:13 10° NNW 03:13:02 43° W 03:18:48 10° SSW
Cosmos 1500 3.4 03:13:45 10° NNW 03:17:24 47° W 03:21:05 10° SSW
COSMOS 2428 3.8 03:13:41 10° NW 03:18:06 23° WSW 03:22:30 10° SSW
Cosmos 1933 Rocket 3.6 03:14:06 10° NNW 03:18:31 63° W 03:22:55 10° S
ERS-2 2.1 03:16:46 10° SSE 03:20:23 86° WSW 03:24:03 10° NNW
Cosmos 2154 Rocket 4.1 03:14:25 10° NNW 03:20:30 57° W 03:26:36 10° SSW
SeaSat 1 3.0 03:16:29 10° S 03:21:00 36° WSW 03:25:33 10° NW
ATLAS 3B R/B 2.8 03:14:42 10° NW 03:21:42 81° SW 03:28:58 10° SSE
MOS 1 Rocket 3.9 03:17:43 10° SSW 03:21:42 32° W 03:25:54 10° NNW
ATLAS 5 CENTAUR R/B 1.9 03:20:11 10° WSW 03:24:05 46° NW 03:28:35 10° NE
Cosmos 2228 Rocket 3.6 03:19:35 10° S 03:24:08 68° E 03:28:41 10° NNE
USA 267 4.0 03:22:08 10° ENE 03:28:13 43° N 03:34:18 10° WNW
